Location: Grandin
(36.0440°N, 81.4159°W)
Time: 08:00:12
(UTC+00:00)

ISS - Visible Passes

Search period start: 06 July 2022 00:00
Search period end: 16 July 2022 00:00
Orbit: 414 x 420 km, 51.6° (Epoch: 06 July)

Date Brightness Start Highest point End Pass type
(mag) Time Alt. Az. Time Alt. Az. Time Alt. Az.
06 Jul -0.6 06:46:06 12° NNW 06:46:06 12° NNW 06:47:27 10° N visible
07 Jul -0.4 05:59:13 13° N 05:59:13 13° N 05:59:52 10° NNE visible
09 Jul -0.4 09:13:13 10° N 09:14:40 12° NNE 09:16:06 10° NE visible
10 Jul -0.3 05:10:36 12° N 05:10:36 12° N 05:11:15 10° N visible
11 Jul -0.6 04:22:30 15° N 04:22:30 15° N 04:23:35 10° NNE visible
11 Jul -1.1 09:12:25 10° NNW 09:15:13 24° NNE 09:18:01 10° E visible
12 Jul -3.0 01:53:08 10° SSW 01:56:04 29° SE 01:59:00 10° ENE visible
12 Jul -1.5 03:29:56 10° W 03:32:47 26° NNW 03:35:40 10° NNE visible
12 Jul -0.5 08:24:31 10° NNW 08:26:45 16° NNE 08:28:58 10° ENE visible
13 Jul -2.5 02:41:11 10° WSW 02:44:23 42° NW 02:47:36 10° NE visible
13 Jul -0.2 07:36:54 10° N 07:38:13 12° NNE 07:39:30 10° NE visible
13 Jul -3.3 09:12:09 10° NW 09:15:30 65° NE 09:18:49 10° ESE visible
14 Jul -3.7 01:52:43 10° SW 01:56:03 80° NW 01:59:23 10° NE visible
14 Jul -0.3 03:31:39 10° NW 03:33:15 13° NNW 03:34:52 10° N visible
14 Jul -2.1 08:23:59 10° NNW 08:27:08 36° NE 08:30:15 10° ESE visible
15 Jul -0.7 02:42:19 10° WNW 02:44:42 18° NNW 02:47:07 10° NNE visible
15 Jul -1.2 07:35:56 10° NNW 07:38:40 23° NNE 07:41:24 10° E visible
15 Jul -3.2 09:12:22 10° WNW 09:15:29 35° SW 09:18:34 10° SSE visible
